UAL43 EDDF-KEWR

Flight info

Callsign UAL43
Flight time 3h 1m
Altitude 34000
Route OBOKA5G/25C OBOKA Z29 TORNU DCT VICOT DCT GALSO Q63 ERING L179 UGBET Q60 OKSAW DCT BIBPE DCT TIGWE/N0477F360 DCT FELCA DCT FADZU DCT NICXI DCT OFSOX DCT SLANY DCT DIMUS DCT MALOT/M083F360 NATE RIKAL/N0482F380 N576B ANATI DCT IMORI DCT HANAA FLOSI4
Aircraft B77W/H-SDE1E2E3FGHIJ2J3J4J5M1RWXY/LB1D1

Departure

Time 2026-05-05 07:48
Airport Frankfurt Main Airport (EDDF)

Arrival

Time 2026-05-05 10:49
Airport Newark Liberty International Airport (KEWR)
Time Latitude Longitude Altitude Speed Heading
2026-05-05 07:28 50.04809 8.57705 361 ft 0 kts 232°
2026-05-05 07:29 50.04803 8.57694 359 ft 0 kts 232°
2026-05-05 07:39 50.04808 8.57704 362 ft 4 kts 237°
2026-05-05 07:39 50.04823 8.57735 362 ft 2 kts 213°
2026-05-05 07:39 50.04843 8.57752 361 ft 4 kts 191°
2026-05-05 07:40 50.04866 8.57749 361 ft 4 kts 141°
2026-05-05 07:40 50.04877 8.57729 361 ft 1 kts 113°
2026-05-05 07:40 50.04868 8.57761 361 ft 4 kts 113°
2026-05-05 07:40 50.04858 8.57798 361 ft 2 kts 112°
2026-05-05 07:41 50.04858 8.57800 359 ft 0 kts 112°
2026-05-05 07:43 50.04857 8.57802 358 ft 2 kts 112°
2026-05-05 07:44 50.04840 8.57853 358 ft 8 kts 125°
2026-05-05 07:44 50.04787 8.57914 356 ft 10 kts 155°
2026-05-05 07:44 50.04723 8.57954 356 ft 10 kts 160°
2026-05-05 07:44 50.04658 8.57990 362 ft 10 kts 160°
2026-05-05 07:45 50.04593 8.58028 362 ft 10 kts 154°
2026-05-05 07:45 50.04569 8.58122 353 ft 10 kts 78°
2026-05-05 07:45 50.04593 8.58228 357 ft 10 kts 70°
2026-05-05 07:45 50.04617 8.58331 360 ft 10 kts 70°
2026-05-05 07:46 50.04641 8.58435 354 ft 10 kts 70°
2026-05-05 07:46 50.04638 8.58550 359 ft 14 kts 130°
2026-05-05 07:46 50.04534 8.58633 360 ft 16 kts 169°
2026-05-05 07:46 50.04480 8.58564 360 ft 11 kts 248°
2026-05-05 07:47 50.04412 8.58281 359 ft 53 kts 250°
2026-05-05 07:47 50.04197 8.57372 357 ft 124 kts 250°
2026-05-05 07:47 50.03839 8.55874 352 ft 175 kts 249°
2026-05-05 07:47 50.03393 8.53983 702 ft 191 kts 250°
2026-05-05 07:48 50.02920 8.52047 1425 ft 192 kts 249°
2026-05-05 07:48 50.02187 8.50336 1947 ft 195 kts 212°
2026-05-05 07:48 50.00885 8.49571 2186 ft 210 kts 188°
2026-05-05 07:48 49.99347 8.49312 2432 ft 233 kts 184°
2026-05-05 07:49 49.97693 8.49110 2937 ft 244 kts 184°
2026-05-05 07:49 49.95990 8.48865 3474 ft 253 kts 192°
2026-05-05 07:49 49.94437 8.47553 4006 ft 258 kts 225°
2026-05-05 07:49 49.93208 8.45546 4641 ft 258 kts 224°
2026-05-05 07:50 49.91926 8.43585 5423 ft 258 kts 223°
2026-05-05 07:50 49.90631 8.41630 6212 ft 259 kts 225°
2026-05-05 07:50 49.89693 8.39238 6743 ft 270 kts 253°
2026-05-05 07:50 49.89518 8.37303 7183 ft 273 kts 268°
2026-05-05 07:51 49.89612 8.33370 8063 ft 278 kts 270°
2026-05-05 07:51 49.89665 8.31365 8565 ft 279 kts 270°
2026-05-05 07:51 49.89803 8.27358 9529 ft 281 kts 277°
2026-05-05 07:51 49.90164 8.25425 9838 ft 287 kts 296°
2026-05-05 07:52 49.91264 8.22773 10174 ft 300 kts 302°
2026-05-05 07:52 49.92457 8.19951 10382 ft 323 kts 301°
2026-05-05 07:52 49.93703 8.16943 10569 ft 346 kts 302°
2026-05-05 07:52 49.95307 8.14021 10733 ft 366 kts 316°
2026-05-05 07:53 49.97307 8.11423 11309 ft 378 kts 319°
2026-05-05 07:53 49.99338 8.08826 12048 ft 385 kts 319°
2026-05-05 07:53 50.01414 8.06140 12988 ft 388 kts 318°
2026-05-05 07:53 50.03470 8.03442 13860 ft 393 kts 317°
2026-05-05 07:54 50.05576 8.00648 14641 ft 399 kts 317°
2026-05-05 07:54 50.07701 7.97809 15428 ft 404 kts 317°
2026-05-05 07:54 50.09834 7.94945 16209 ft 409 kts 317°
2026-05-05 07:54 50.11983 7.92052 16959 ft 415 kts 316°
2026-05-05 07:55 50.14185 7.89083 17725 ft 420 kts 316°
2026-05-05 07:55 50.16397 7.86099 18490 ft 423 kts 316°
2026-05-05 07:55 50.18640 7.83072 19363 ft 423 kts 316°
2026-05-05 07:55 50.20865 7.80065 20077 ft 428 kts 317°
2026-05-05 07:56 50.23142 7.76982 20676 ft 435 kts 317°
2026-05-05 07:56 50.25472 7.73904 21306 ft 440 kts 321°
2026-05-05 07:56 50.28145 7.71549 21904 ft 449 kts 336°
2026-05-05 07:56 50.31071 7.69866 22587 ft 453 kts 338°
2026-05-05 07:57 50.34037 7.68013 23219 ft 456 kts 335°
2026-05-05 07:57 50.36935 7.66033 23750 ft 461 kts 334°
2026-05-05 07:57 50.39888 7.63974 24293 ft 464 kts 334°
2026-05-05 07:57 50.42825 7.61929 24877 ft 466 kts 334°
2026-05-05 07:58 50.45814 7.59859 25448 ft 469 kts 333°
2026-05-05 07:58 50.48783 7.57810 25971 ft 472 kts 333°
2026-05-05 07:58 50.51811 7.55722 26438 ft 475 kts 333°
2026-05-05 07:58 50.54830 7.53636 26933 ft 478 kts 333°
2026-05-05 07:59 50.57834 7.51304 27395 ft 478 kts 326°
2026-05-05 07:59 50.60647 7.48479 27856 ft 479 kts 322°
2026-05-05 07:59 50.63351 7.45497 28294 ft 481 kts 322°
2026-05-05 07:59 50.66135 7.42441 28703 ft 485 kts 322°
2026-05-05 08:00 50.68927 7.39497 29111 ft 488 kts 323°
2026-05-05 08:00 50.71799 7.36547 29512 ft 489 kts 323°
2026-05-05 08:00 50.74430 7.33299 29770 ft 484 kts 309°
2026-05-05 08:00 50.76320 7.28957 30148 ft 470 kts 291°
2026-05-05 08:01 50.77648 7.24299 30506 ft 468 kts 291°
2026-05-05 08:01 50.79072 7.19646 30936 ft 468 kts 292°
2026-05-05 08:01 50.80541 7.15086 31518 ft 464 kts 293°
2026-05-05 08:01 50.81991 7.10655 32076 ft 460 kts 293°
2026-05-05 08:02 50.83454 7.06176 32622 ft 457 kts 292°
2026-05-05 08:02 50.84908 7.01679 32964 ft 458 kts 292°
2026-05-05 08:02 50.86357 6.97171 33253 ft 459 kts 291°
2026-05-05 08:02 50.87785 6.92727 33705 ft 457 kts 291°
2026-05-05 08:03 50.89238 6.88215 33908 ft 459 kts 291°
2026-05-05 08:03 50.90691 6.83696 33902 ft 459 kts 291°
2026-05-05 08:03 50.93742 6.74206 33886 ft 453 kts 291°
2026-05-05 08:04 51.13359 6.12064 33953 ft 452 kts 287°
2026-05-05 08:04 51.17091 5.90913 33942 ft 453 kts 278°
2026-05-05 08:05 51.19355 5.77014 33917 ft 452 kts 279°
2026-05-05 08:05 51.24535 5.47637 33877 ft 441 kts 279°
2026-05-05 08:06 51.31120 5.09118 33966 ft 461 kts 279°
2026-05-05 08:06 51.37719 4.69707 33856 ft 453 kts 280°
2026-05-05 08:07 51.44035 4.31067 33945 ft 453 kts 279°
2026-05-05 08:07 51.52025 3.91667 33863 ft 469 kts 291°
2026-05-05 08:08 51.57466 3.73044 34159 ft 465 kts 291°
2026-05-05 08:08 51.59920 3.64474 34707 ft 463 kts 291°
2026-05-05 08:08 51.61246 3.59828 35071 ft 460 kts 291°
2026-05-05 08:08 51.62585 3.55130 35392 ft 459 kts 291°
2026-05-05 08:09 51.63905 3.50489 35674 ft 459 kts 291°
2026-05-05 08:09 51.65239 3.45788 35851 ft 460 kts 291°
2026-05-05 08:09 51.66982 3.39633 35965 ft 462 kts 291°
2026-05-05 08:09 51.69144 3.31985 35924 ft 466 kts 291°
2026-05-05 08:10 51.72538 3.16813 35981 ft 458 kts 275°
2026-05-05 08:10 51.71829 2.99144 35855 ft 456 kts 259°
2026-05-05 08:10 51.71342 2.94075 35893 ft 455 kts 259°
2026-05-05 08:11 51.69190 2.69954 35948 ft 454 kts 261°
2026-05-05 08:11 51.65501 2.29718 35977 ft 455 kts 260°
2026-05-05 08:12 51.61764 1.89502 35983 ft 456 kts 261°
2026-05-05 08:12 51.59571 1.48897 35940 ft 460 kts 273°
2026-05-05 08:13 51.61291 1.07727 35988 ft 462 kts 272°
2026-05-05 08:13 51.62874 0.66302 36005 ft 464 kts 271°
2026-05-05 08:14 51.64287 0.24903 35987 ft 467 kts 271°
2026-05-05 08:14 51.63483 0.04231 35988 ft 465 kts 258°
2026-05-05 08:14 51.61919 -0.15266 35940 ft 469 kts 270°
2026-05-05 08:15 51.64381 -0.56289 36017 ft 470 kts 274°
2026-05-05 08:15 51.66716 -0.97560 36002 ft 472 kts 274°
2026-05-05 08:16 51.68921 -1.39063 36019 ft 474 kts 274°
2026-05-05 08:16 51.71284 -1.81125 36034 ft 475 kts 276°
2026-05-05 08:17 51.74307 -2.23769 36051 ft 477 kts 274°
2026-05-05 08:17 51.77144 -2.66291 36026 ft 479 kts 275°
2026-05-05 08:18 51.79844 -3.09129 36002 ft 481 kts 275°
2026-05-05 08:18 51.82411 -3.52249 36023 ft 484 kts 276°
2026-05-05 08:19 51.87782 -3.94894 36041 ft 486 kts 282°
2026-05-05 08:19 51.93155 -4.37785 36045 ft 488 kts 282°
2026-05-05 08:20 51.98379 -4.80811 36064 ft 487 kts 282°
2026-05-05 08:20 52.03662 -5.23742 36037 ft 483 kts 289°
2026-05-05 08:21 52.12124 -5.65180 36099 ft 480 kts 289°
2026-05-05 08:21 52.20272 -6.06168 36080 ft 476 kts 288°
2026-05-05 08:22 52.26874 -6.47877 36089 ft 472 kts 282°
2026-05-05 08:22 52.31923 -6.89634 36095 ft 469 kts 282°
2026-05-05 08:23 52.36833 -7.31239 36091 ft 465 kts 281°
2026-05-05 08:23 52.41594 -7.72924 36108 ft 462 kts 281°
2026-05-05 08:24 52.46141 -8.14079 36117 ft 460 kts 280°
2026-05-05 08:24 52.50570 -8.55551 36109 ft 459 kts 280°
2026-05-05 08:25 52.54819 -8.96766 36127 ft 459 kts 279°
2026-05-05 08:25 52.58926 -9.38075 36125 ft 459 kts 279°
2026-05-05 08:26 52.62898 -9.79566 36136 ft 460 kts 279°
2026-05-05 08:26 52.67252 -9.98971 36125 ft 451 kts 303°
2026-05-05 08:26 52.68888 -10.05023 36143 ft 454 kts 282°
2026-05-05 08:27 52.71342 -10.34172 36100 ft 470 kts 279°
2026-05-05 08:27 52.73066 -10.53799 36123 ft 453 kts 278°
2026-05-05 08:28 52.76564 -10.95091 36194 ft 459 kts 278°
2026-05-05 08:28 52.78160 -11.14098 36159 ft 468 kts 278°
2026-05-05 08:29 52.80312 -11.40881 36178 ft 452 kts 278°
2026-05-05 08:30 52.83869 -11.86141 36140 ft 468 kts 278°
2026-05-05 08:30 52.86901 -12.27849 36108 ft 449 kts 277°
2026-05-05 08:31 52.89234 -12.60682 36197 ft 468 kts 277°
2026-05-05 08:31 52.91490 -12.94060 36161 ft 451 kts 277°
2026-05-05 08:32 52.94028 -13.33348 36281 ft 459 kts 277°
2026-05-05 08:32 52.95241 -13.52683 36293 ft 463 kts 277°
2026-05-05 08:33 52.96036 -13.65703 36185 ft 463 kts 277°
2026-05-05 08:33 52.96896 -13.80262 36189 ft 451 kts 277°
2026-05-05 08:33 52.97900 -13.97617 36210 ft 446 kts 276°
2026-05-05 08:34 52.99818 -14.31790 36312 ft 458 kts 276°
2026-05-05 08:34 53.00866 -14.51213 36300 ft 461 kts 276°
2026-05-05 08:35 53.01599 -14.65278 36207 ft 454 kts 276°
2026-05-05 08:35 53.03503 -15.02070 36214 ft 448 kts 281°
2026-05-05 08:35 53.04664 -15.07829 36237 ft 448 kts 295°
2026-05-05 08:36 53.06475 -15.14365 36206 ft 456 kts 294°
2026-05-05 08:36 53.15681 -15.54370 36196 ft 461 kts 290°
2026-05-05 08:37 53.24230 -15.93624 36282 ft 444 kts 290°
2026-05-05 08:37 53.28768 -16.14753 36240 ft 458 kts 289°
2026-05-05 08:38 53.35345 -16.45771 36224 ft 458 kts 289°
2026-05-05 08:38 53.43778 -16.86256 36228 ft 458 kts 289°
2026-05-05 08:39 53.51971 -17.26392 36242 ft 457 kts 288°
2026-05-05 08:39 53.60083 -17.66951 36235 ft 456 kts 288°
2026-05-05 08:40 53.68039 -18.07578 36252 ft 456 kts 288°
2026-05-05 08:40 53.75827 -18.48193 36248 ft 455 kts 287°
2026-05-05 08:41 53.83494 -18.89051 36255 ft 455 kts 287°
2026-05-05 08:41 53.90984 -19.29848 36258 ft 455 kts 287°
2026-05-05 08:42 53.98334 -19.70791 36269 ft 456 kts 286°
2026-05-05 08:42 54.03936 -20.12860 36229 ft 457 kts 274°
2026-05-05 08:43 54.04745 -20.35080 36235 ft 457 kts 274°
2026-05-05 08:43 54.06153 -20.73152 36328 ft 459 kts 274°
2026-05-05 08:44 54.06724 -20.89551 36379 ft 460 kts 274°
2026-05-05 08:44 54.06963 -20.96615 36262 ft 463 kts 274°
2026-05-05 08:44 54.07360 -21.08670 36389 ft 460 kts 274°
2026-05-05 08:45 54.08111 -21.32502 36322 ft 463 kts 274°
2026-05-05 08:45 54.09130 -21.67543 36389 ft 462 kts 273°
2026-05-05 08:46 54.09534 -21.82513 36301 ft 463 kts 273°
2026-05-05 08:46 54.10610 -22.26388 36293 ft 463 kts 273°
2026-05-05 08:47 54.11522 -22.70044 36297 ft 463 kts 272°
2026-05-05 08:47 54.12134 -23.04812 36301 ft 464 kts 273°
2026-05-05 08:48 54.12550 -23.32465 36317 ft 465 kts 272°
2026-05-05 08:48 54.13083 -23.76661 36315 ft 467 kts 272°
2026-05-05 08:49 54.13456 -24.21124 36316 ft 467 kts 272°
2026-05-05 08:49 54.13664 -24.65452 36315 ft 467 kts 272°
2026-05-05 08:50 54.13710 -25.09594 36321 ft 466 kts 272°
2026-05-05 08:50 54.13595 -25.53628 36321 ft 465 kts 272°
2026-05-05 08:51 54.13321 -25.97413 36333 ft 463 kts 272°
2026-05-05 08:51 54.12885 -26.41451 36331 ft 462 kts 271°
2026-05-05 08:52 54.12295 -26.85098 36319 ft 461 kts 271°
2026-05-05 08:52 54.11710 -27.19926 36344 ft 461 kts 271°
2026-05-05 08:53 54.11072 -27.52491 36449 ft 459 kts 271°
2026-05-05 08:53 54.10587 -27.74693 36462 ft 461 kts 271°
2026-05-05 08:54 54.10205 -27.91005 36390 ft 464 kts 271°
2026-05-05 08:54 54.09517 -28.18211 36421 ft 465 kts 271°
2026-05-05 08:55 54.09001 -28.37195 36428 ft 467 kts 271°
2026-05-05 08:55 54.08422 -28.57268 36374 ft 468 kts 271°
2026-05-05 08:56 54.07702 -28.80742 36369 ft 466 kts 271°
2026-05-05 08:56 54.07008 -29.02111 36473 ft 463 kts 270°
2026-05-05 08:56 54.06826 -29.07525 36437 ft 465 kts 270°
2026-05-05 08:57 54.05489 -29.45277 36371 ft 465 kts 270°
2026-05-05 08:57 54.03791 -29.89081 36356 ft 464 kts 270°
2026-05-05 08:58 54.04638 -30.32486 36351 ft 458 kts 278°
2026-05-05 08:58 54.05829 -30.64024 36257 ft 458 kts 278°
2026-05-05 08:59 54.06606 -30.86100 36464 ft 454 kts 278°
2026-05-05 08:59 54.07196 -31.03574 36389 ft 455 kts 278°
2026-05-05 09:00 54.07850 -31.23985 36462 ft 453 kts 277°
2026-05-05 09:00 54.08376 -31.41217 36437 ft 454 kts 277°
2026-05-05 09:01 54.09019 -31.63506 36333 ft 455 kts 277°
2026-05-05 09:01 54.10137 -32.06280 36333 ft 450 kts 276°
2026-05-05 09:02 54.11099 -32.48806 36289 ft 448 kts 275°
2026-05-05 09:02 54.11903 -32.90941 36318 ft 445 kts 275°
2026-05-05 09:03 54.12559 -33.32981 36315 ft 443 kts 274°
2026-05-05 09:03 54.13068 -33.75035 36278 ft 444 kts 273°
2026-05-05 09:04 54.13281 -33.97571 36209 ft 446 kts 272°
2026-05-05 09:04 54.13340 -34.04828 36313 ft 444 kts 272°
2026-05-05 09:04 54.13452 -34.20245 36301 ft 447 kts 272°
2026-05-05 09:05 54.13659 -34.62994 36302 ft 452 kts 272°
2026-05-05 09:05 54.13714 -35.05893 36291 ft 455 kts 271°
2026-05-05 09:06 54.13615 -35.49226 36274 ft 459 kts 270°
2026-05-05 09:06 54.13358 -35.92823 36270 ft 460 kts 269°
2026-05-05 09:07 54.12944 -36.36430 36234 ft 461 kts 267°
2026-05-05 09:07 54.12366 -36.80429 36214 ft 464 kts 266°
2026-05-05 09:08 54.11610 -37.25243 36179 ft 483 kts 265°
2026-05-05 09:08 54.10679 -37.70711 36154 ft 478 kts 264°
2026-05-05 09:09 54.09833 -38.05976 36258 ft 481 kts 264°
2026-05-05 09:09 54.09299 -38.26312 36190 ft 486 kts 263°
2026-05-05 09:10 54.08736 -38.46548 36163 ft 485 kts 263°
2026-05-05 09:10 54.08252 -38.62951 36111 ft 487 kts 263°
2026-05-05 09:11 54.07223 -38.95664 36218 ft 486 kts 262°
2026-05-05 09:11 54.06913 -39.04949 36103 ft 489 kts 262°
2026-05-05 09:11 54.06297 -39.22823 36318 ft 494 kts 262°
2026-05-05 09:11 54.05951 -39.32606 36932 ft 490 kts 262°
2026-05-05 09:12 54.05743 -39.38420 37501 ft 485 kts 262°
2026-05-05 09:12 54.05537 -39.44077 38014 ft 480 kts 262°
2026-05-05 09:12 54.05324 -39.49827 38059 ft 483 kts 262°
2026-05-05 09:13 54.03836 -39.87947 38024 ft 478 kts 261°
2026-05-05 09:13 54.01487 -40.32286 38009 ft 468 kts 259°
2026-05-05 09:14 53.98743 -40.76959 38052 ft 482 kts 259°
2026-05-05 09:14 53.95786 -41.22566 38018 ft 484 kts 259°
2026-05-05 09:15 53.92699 -41.67439 37993 ft 475 kts 258°
2026-05-05 09:15 53.90060 -42.03889 38095 ft 483 kts 258°
2026-05-05 09:15 53.89427 -42.12415 37993 ft 487 kts 258°
2026-05-05 09:16 53.88334 -42.26955 38069 ft 488 kts 257°
2026-05-05 09:16 53.86967 -42.44885 37982 ft 479 kts 257°
2026-05-05 09:17 53.83566 -42.87768 38018 ft 478 kts 257°
2026-05-05 09:17 53.82096 -43.05704 37955 ft 486 kts 257°
2026-05-05 09:18 53.79876 -43.32233 38073 ft 490 kts 257°
2026-05-05 09:18 53.78270 -43.50986 37983 ft 490 kts 257°
2026-05-05 09:19 53.76316 -43.73337 38003 ft 487 kts 257°
2026-05-05 09:19 53.74706 -43.91363 37960 ft 485 kts 257°
2026-05-05 09:20 53.73276 -44.07127 37897 ft 483 kts 257°
2026-05-05 09:20 53.71202 -44.29587 38033 ft 477 kts 257°
2026-05-05 09:21 53.68433 -44.58821 38009 ft 479 kts 256°
2026-05-05 09:21 53.66784 -44.75872 37901 ft 481 kts 256°
2026-05-05 09:21 53.64976 -44.92109 37870 ft 473 kts 245°
2026-05-05 09:22 53.63479 -44.97710 37903 ft 469 kts 240°
2026-05-05 09:22 53.57792 -45.30615 37911 ft 481 kts 256°
2026-05-05 09:23 53.55946 -45.49732 37836 ft 484 kts 256°
2026-05-05 09:23 53.52007 -45.87153 37831 ft 483 kts 255°
2026-05-05 09:24 53.47193 -46.31191 37880 ft 483 kts 255°
2026-05-05 09:24 53.42181 -46.75451 37826 ft 483 kts 255°
2026-05-05 09:25 53.37011 -47.19556 37769 ft 484 kts 254°
2026-05-05 09:25 53.31663 -47.63692 37756 ft 483 kts 254°
2026-05-05 09:26 53.26156 -48.07688 37708 ft 484 kts 254°
2026-05-05 09:26 53.20474 -48.51670 37704 ft 483 kts 253°
2026-05-05 09:27 53.14686 -48.95117 37669 ft 483 kts 253°
2026-05-05 09:27 53.08697 -49.38767 37622 ft 483 kts 253°
2026-05-05 09:28 53.02564 -49.82193 37644 ft 482 kts 253°
2026-05-05 09:28 52.95750 -50.17937 37582 ft 478 kts 244°
2026-05-05 09:29 52.85803 -50.58599 37574 ft 478 kts 244°
2026-05-05 09:29 52.75738 -50.99249 37530 ft 479 kts 245°
2026-05-05 09:30 52.65553 -51.39636 37526 ft 478 kts 244°
2026-05-05 09:30 52.55897 -51.77260 37512 ft 477 kts 244°
2026-05-05 09:31 52.45491 -52.17120 37483 ft 476 kts 244°
2026-05-05 09:31 52.34959 -52.56758 37478 ft 475 kts 243°
2026-05-05 09:32 52.24239 -52.96415 37459 ft 475 kts 243°
2026-05-05 09:32 52.13493 -53.35499 37468 ft 474 kts 244°
2026-05-05 09:33 52.02592 -53.74483 37448 ft 474 kts 243°
2026-05-05 09:33 51.91521 -54.13430 37443 ft 474 kts 243°
2026-05-05 09:34 51.80413 -54.51960 37449 ft 474 kts 245°
2026-05-05 09:34 51.72602 -54.92733 37430 ft 473 kts 250°
2026-05-05 09:35 51.64828 -55.33297 37375 ft 474 kts 250°
2026-05-05 09:35 51.52892 -55.93998 37345 ft 475 kts 251°
2026-05-05 09:36 51.44781 -56.34187 37345 ft 473 kts 251°
2026-05-05 09:36 51.36605 -56.73887 37341 ft 468 kts 250°
2026-05-05 09:37 51.28386 -57.13018 37341 ft 464 kts 250°
2026-05-05 09:37 51.20052 -57.51931 37437 ft 466 kts 250°
2026-05-05 09:38 51.11410 -57.91526 37448 ft 476 kts 250°
2026-05-05 09:38 51.02656 -58.30875 37439 ft 467 kts 250°
2026-05-05 09:39 50.93918 -58.69425 37452 ft 464 kts 250°
2026-05-05 09:39 50.84941 -59.08320 37463 ft 479 kts 250°
2026-05-05 09:40 50.75722 -59.47534 37400 ft 469 kts 250°
2026-05-05 09:40 50.66611 -59.85610 37479 ft 463 kts 250°
2026-05-05 09:41 50.57294 -60.23871 37502 ft 476 kts 250°
2026-05-05 09:41 50.47764 -60.62327 37438 ft 467 kts 249°
2026-05-05 09:42 50.44753 -60.74341 37541 ft 461 kts 249°
2026-05-05 09:42 50.37831 -61.01725 37647 ft 466 kts 249°
2026-05-05 09:43 50.31963 -61.24675 37654 ft 474 kts 249°
2026-05-05 09:43 50.26129 -61.47254 37566 ft 454 kts 249°
2026-05-05 09:44 50.16585 -61.83745 37608 ft 461 kts 249°
2026-05-05 09:44 50.12631 -61.98692 37589 ft 470 kts 249°
2026-05-05 09:45 50.02603 -62.36158 37580 ft 464 kts 249°
2026-05-05 09:45 49.92695 -62.72596 37632 ft 455 kts 249°
2026-05-05 09:46 49.85436 -62.98944 37740 ft 465 kts 248°
2026-05-05 09:46 49.81615 -63.12692 37628 ft 471 kts 249°
2026-05-05 09:46 49.76415 -63.31268 37663 ft 466 kts 248°
2026-05-05 09:47 49.70195 -63.53301 37613 ft 455 kts 248°
2026-05-05 09:47 49.64025 -63.74970 37721 ft 460 kts 248°
2026-05-05 09:48 49.55066 -64.06072 37695 ft 467 kts 248°
2026-05-05 09:48 49.51063 -64.19830 37626 ft 449 kts 248°
2026-05-05 09:48 49.47520 -64.31951 37668 ft 442 kts 248°
2026-05-05 09:49 49.43474 -64.45738 37737 ft 456 kts 248°
2026-05-05 09:49 49.40207 -64.56804 37677 ft 466 kts 248°
2026-05-05 09:49 49.29772 -64.91780 37581 ft 455 kts 248°
2026-05-05 09:50 49.25760 -65.05099 37725 ft 445 kts 248°
2026-05-05 09:50 49.18313 -65.29645 37743 ft 442 kts 248°
2026-05-05 09:51 49.11306 -65.52520 37789 ft 449 kts 247°
2026-05-05 09:51 49.03699 -65.77107 37720 ft 454 kts 247°
2026-05-05 09:52 48.96641 -65.99697 37669 ft 444 kts 247°
2026-05-05 09:52 48.92357 -66.13314 37751 ft 438 kts 246°
2026-05-05 09:53 48.83985 -66.39721 37849 ft 449 kts 246°
2026-05-05 09:53 48.77104 -66.61206 37728 ft 440 kts 246°
2026-05-05 09:54 48.66419 -66.94226 37804 ft 440 kts 246°
2026-05-05 09:54 48.62541 -67.06105 37800 ft 448 kts 246°
2026-05-05 09:55 48.51951 -67.38245 37735 ft 444 kts 246°
2026-05-05 09:55 48.44699 -67.60029 37704 ft 433 kts 246°
2026-05-05 09:56 48.40061 -67.73877 37744 ft 445 kts 246°
2026-05-05 09:56 48.28792 -68.07179 37711 ft 445 kts 246°
2026-05-05 09:57 48.17704 -68.39537 37740 ft 432 kts 245°
2026-05-05 09:57 48.07925 -68.67756 37847 ft 444 kts 245°
2026-05-05 09:58 48.02641 -68.82866 37720 ft 444 kts 245°
2026-05-05 09:58 47.96962 -68.99008 37671 ft 432 kts 245°
2026-05-05 09:58 47.94337 -69.06437 37629 ft 427 kts 245°
2026-05-05 09:59 47.89804 -69.19229 37766 ft 427 kts 245°
2026-05-05 09:59 47.86477 -69.28578 37823 ft 432 kts 245°
2026-05-05 09:59 47.80520 -69.45226 37772 ft 441 kts 245°
2026-05-05 10:00 47.75291 -69.59479 37726 ft 430 kts 241°
2026-05-05 10:00 47.66781 -69.76581 37761 ft 433 kts 237°
2026-05-05 10:01 47.56736 -69.96574 37698 ft 446 kts 237°
2026-05-05 10:01 47.49965 -70.09967 37585 ft 438 kts 237°
2026-05-05 10:01 47.47993 -70.13855 37627 ft 430 kts 237°
2026-05-05 10:02 47.37253 -70.34966 37701 ft 431 kts 237°
2026-05-05 10:02 47.22547 -70.63590 37677 ft 440 kts 237°
2026-05-05 10:03 47.07999 -70.91615 37643 ft 423 kts 237°
2026-05-05 10:03 46.93987 -71.18357 37817 ft 433 kts 236°
2026-05-05 10:04 46.86483 -71.32567 37824 ft 439 kts 236°
2026-05-05 10:04 46.82064 -71.40892 37677 ft 425 kts 236°
2026-05-05 10:05 46.67133 -71.64572 37695 ft 434 kts 215°
2026-05-05 10:05 46.58026 -71.70278 37679 ft 449 kts 208°
2026-05-05 10:05 46.48800 -71.75686 37653 ft 451 kts 209°
2026-05-05 10:06 46.38136 -71.82044 37659 ft 440 kts 209°
2026-05-05 10:06 46.25875 -71.89367 37704 ft 435 kts 209°
2026-05-05 10:07 46.05425 -72.01492 37713 ft 436 kts 209°
2026-05-05 10:07 45.82908 -72.14726 37714 ft 438 kts 209°
2026-05-05 10:08 45.60332 -72.27877 37728 ft 439 kts 209°
2026-05-05 10:08 45.37593 -72.41010 37729 ft 443 kts 208°
2026-05-05 10:09 45.14696 -72.54118 37715 ft 445 kts 208°
2026-05-05 10:09 44.91752 -72.67138 37745 ft 446 kts 208°
2026-05-05 10:10 44.68628 -72.80147 37759 ft 447 kts 208°
2026-05-05 10:10 44.45563 -72.93015 37759 ft 446 kts 208°
2026-05-05 10:11 44.22562 -73.05736 37793 ft 445 kts 208°
2026-05-05 10:11 44.13172 -73.10899 37782 ft 445 kts 208°
2026-05-05 10:12 44.07430 -73.14045 37773 ft 443 kts 208°
2026-05-05 10:12 44.01702 -73.17179 37782 ft 442 kts 208°
2026-05-05 10:13 43.95969 -73.20310 37774 ft 441 kts 208°
2026-05-05 10:13 43.90275 -73.23413 37787 ft 440 kts 208°
2026-05-05 10:14 43.87461 -73.24943 37600 ft 438 kts 208°
2026-05-05 10:14 43.84614 -73.26491 37022 ft 439 kts 208°
2026-05-05 10:14 43.81770 -73.28036 36417 ft 441 kts 208°
2026-05-05 10:14 43.78892 -73.29600 35714 ft 444 kts 207°
2026-05-05 10:15 43.76037 -73.31150 34948 ft 447 kts 207°
2026-05-05 10:15 43.73129 -73.32725 34289 ft 449 kts 207°
2026-05-05 10:15 43.70206 -73.34303 33720 ft 448 kts 207°
2026-05-05 10:15 43.67323 -73.35858 33096 ft 447 kts 207°
2026-05-05 10:16 43.64449 -73.37406 32536 ft 444 kts 207°
2026-05-05 10:16 43.61557 -73.38963 31979 ft 442 kts 207°
2026-05-05 10:16 43.58695 -73.40502 31446 ft 440 kts 207°
2026-05-05 10:16 43.55873 -73.42020 30906 ft 437 kts 207°
2026-05-05 10:17 43.53031 -73.43547 30380 ft 435 kts 207°
2026-05-05 10:17 43.50240 -73.45046 29845 ft 433 kts 207°
2026-05-05 10:17 43.47438 -73.46549 29233 ft 431 kts 207°
2026-05-05 10:17 43.44640 -73.48048 28671 ft 427 kts 207°
2026-05-05 10:18 43.41903 -73.49513 28122 ft 424 kts 206°
2026-05-05 10:18 43.39165 -73.50977 27558 ft 419 kts 206°
2026-05-05 10:18 43.36442 -73.52432 27047 ft 415 kts 206°
2026-05-05 10:18 43.33793 -73.53845 26520 ft 410 kts 206°
2026-05-05 10:19 43.31139 -73.55261 25996 ft 406 kts 206°
2026-05-05 10:19 43.28506 -73.56665 25486 ft 401 kts 206°
2026-05-05 10:19 43.25950 -73.58027 24995 ft 397 kts 206°
2026-05-05 10:19 43.23381 -73.59394 24501 ft 394 kts 206°
2026-05-05 10:20 43.20826 -73.60751 23999 ft 390 kts 206°
2026-05-05 10:20 43.18314 -73.62022 23683 ft 384 kts 203°
2026-05-05 10:20 43.15769 -73.63134 23432 ft 376 kts 202°
2026-05-05 10:20 43.13314 -73.64145 23171 ft 370 kts 201°
2026-05-05 10:21 43.10844 -73.65154 22928 ft 370 kts 201°
2026-05-05 10:21 43.08362 -73.66178 22692 ft 373 kts 201°
2026-05-05 10:21 43.05882 -73.67213 22457 ft 374 kts 201°
2026-05-05 10:21 43.03417 -73.68248 22211 ft 373 kts 201°
2026-05-05 10:22 43.00952 -73.69286 21981 ft 371 kts 201°
2026-05-05 10:22 42.98487 -73.70325 21753 ft 369 kts 201°
2026-05-05 10:22 42.96022 -73.71364 21520 ft 367 kts 201°
2026-05-05 10:22 42.93606 -73.72382 21298 ft 366 kts 201°
2026-05-05 10:23 42.91159 -73.73413 21063 ft 364 kts 201°
2026-05-05 10:23 42.88760 -73.74423 20846 ft 362 kts 201°
2026-05-05 10:23 42.86355 -73.75435 20630 ft 361 kts 201°
2026-05-05 10:23 42.83956 -73.76444 20400 ft 359 kts 201°
2026-05-05 10:24 42.81584 -73.77441 20180 ft 358 kts 201°
2026-05-05 10:24 42.79207 -73.78439 19961 ft 356 kts 201°
2026-05-05 10:24 42.76867 -73.79420 19736 ft 355 kts 201°
2026-05-05 10:24 42.74503 -73.80411 19529 ft 353 kts 201°
2026-05-05 10:25 42.72151 -73.81439 19299 ft 352 kts 202°
2026-05-05 10:25 42.69861 -73.82470 19077 ft 350 kts 202°
2026-05-05 10:25 42.67542 -73.83520 18889 ft 348 kts 202°
2026-05-05 10:25 42.65239 -73.84561 18691 ft 347 kts 202°
2026-05-05 10:26 42.62968 -73.85585 18484 ft 346 kts 202°
2026-05-05 10:26 42.60674 -73.86618 18284 ft 346 kts 202°
2026-05-05 10:26 42.58406 -73.87636 18058 ft 345 kts 202°
2026-05-05 10:26 42.56132 -73.88655 17829 ft 345 kts 202°
2026-05-05 10:27 42.53846 -73.89678 17599 ft 344 kts 202°
2026-05-05 10:27 42.51591 -73.90684 17357 ft 342 kts 202°
2026-05-05 10:27 42.49325 -73.91695 17149 ft 339 kts 202°
2026-05-05 10:27 42.47086 -73.92694 16917 ft 337 kts 202°
2026-05-05 10:28 42.44882 -73.93676 16732 ft 335 kts 202°
2026-05-05 10:28 42.42671 -73.94661 16522 ft 333 kts 202°
2026-05-05 10:28 42.40460 -73.95645 16320 ft 333 kts 202°
2026-05-05 10:28 42.38283 -73.96614 16111 ft 333 kts 202°
2026-05-05 10:29 42.36089 -73.97590 15911 ft 333 kts 202°
2026-05-05 10:29 42.33883 -73.98570 15707 ft 333 kts 202°
2026-05-05 10:29 42.31667 -73.99554 15496 ft 333 kts 202°
2026-05-05 10:29 42.29490 -74.00520 15311 ft 333 kts 202°
2026-05-05 10:30 42.27273 -74.01502 15082 ft 333 kts 202°
2026-05-05 10:30 42.25065 -74.02479 14873 ft 333 kts 202°
2026-05-05 10:30 42.22875 -74.03448 14671 ft 332 kts 202°
2026-05-05 10:30 42.20686 -74.04415 14474 ft 329 kts 202°
2026-05-05 10:31 42.18527 -74.05366 14284 ft 329 kts 202°
2026-05-05 10:31 42.16341 -74.06333 14034 ft 327 kts 202°
2026-05-05 10:31 42.14211 -74.07270 13879 ft 326 kts 202°
2026-05-05 10:31 42.12047 -74.08229 13655 ft 326 kts 202°
2026-05-05 10:32 42.09887 -74.09184 13431 ft 326 kts 202°
2026-05-05 10:32 42.07755 -74.10123 13211 ft 325 kts 202°
2026-05-05 10:32 42.05600 -74.11071 13017 ft 324 kts 202°
2026-05-05 10:32 42.03460 -74.12009 12801 ft 324 kts 202°
2026-05-05 10:33 42.01316 -74.12948 12615 ft 323 kts 202°
2026-05-05 10:33 41.99174 -74.13889 12395 ft 322 kts 202°
2026-05-05 10:33 41.97069 -74.14811 12207 ft 321 kts 202°
2026-05-05 10:33 41.94942 -74.15741 12004 ft 319 kts 202°
2026-05-05 10:34 41.92839 -74.16662 11812 ft 318 kts 202°
2026-05-05 10:34 41.90730 -74.17588 11583 ft 317 kts 202°
2026-05-05 10:34 41.88648 -74.18497 11401 ft 315 kts 202°
2026-05-05 10:34 41.86564 -74.19406 11205 ft 315 kts 202°
2026-05-05 10:35 41.84481 -74.20316 11016 ft 314 kts 202°
2026-05-05 10:35 41.82409 -74.21220 10822 ft 312 kts 202°
2026-05-05 10:35 41.80368 -74.22108 10625 ft 305 kts 202°
2026-05-05 10:35 41.78374 -74.22974 10438 ft 296 kts 202°
2026-05-05 10:36 41.76467 -74.23805 10249 ft 288 kts 202°
2026-05-05 10:36 41.74582 -74.24627 10076 ft 280 kts 202°
2026-05-05 10:36 41.72754 -74.25423 9898 ft 272 kts 202°
2026-05-05 10:36 41.70989 -74.26190 9718 ft 260 kts 202°
2026-05-05 10:37 41.69292 -74.26928 9550 ft 254 kts 202°
2026-05-05 10:37 41.67610 -74.27659 9402 ft 254 kts 202°
2026-05-05 10:37 41.65593 -74.28537 9204 ft 255 kts 202°
2026-05-05 10:37 41.58890 -74.31445 8599 ft 255 kts 203°
2026-05-05 10:38 41.52067 -74.34396 7947 ft 256 kts 203°
2026-05-05 10:38 41.45371 -74.37285 7373 ft 255 kts 203°
2026-05-05 10:38 41.38656 -74.40178 6767 ft 248 kts 204°
2026-05-05 10:38 41.32205 -74.42948 6353 ft 236 kts 204°
2026-05-05 10:39 41.25897 -74.44825 5730 ft 260 kts 165°
2026-05-05 10:39 41.23748 -74.42874 5377 ft 280 kts 150°
2026-05-05 10:39 41.21289 -74.40576 5362 ft 294 kts 152°
2026-05-05 10:39 41.12678 -74.32531 4476 ft 287 kts 149°
2026-05-05 10:40 41.11211 -74.30772 4280 ft 276 kts 146°
2026-05-05 10:40 41.09712 -74.29302 4075 ft 266 kts 151°
2026-05-05 10:40 41.08179 -74.27926 3781 ft 265 kts 155°
2026-05-05 10:40 41.06639 -74.26619 3705 ft 262 kts 154°
2026-05-05 10:41 41.05119 -74.25281 3615 ft 260 kts 153°
2026-05-05 10:41 41.03639 -74.23937 3425 ft 259 kts 153°
2026-05-05 10:41 41.02140 -74.22572 3213 ft 261 kts 153°
2026-05-05 10:41 41.00660 -74.21219 3099 ft 258 kts 153°
2026-05-05 10:42 40.97736 -74.18485 3008 ft 258 kts 152°
2026-05-05 10:42 40.96267 -74.17106 3001 ft 258 kts 152°
2026-05-05 10:42 40.94804 -74.15737 2994 ft 257 kts 152°
2026-05-05 10:43 40.93338 -74.14451 2992 ft 252 kts 159°
2026-05-05 10:43 40.91789 -74.13381 2981 ft 251 kts 162°
2026-05-05 10:43 40.90219 -74.12333 3018 ft 252 kts 161°
2026-05-05 10:43 40.88680 -74.11287 2978 ft 246 kts 161°
2026-05-05 10:44 40.87197 -74.10260 2972 ft 232 kts 160°
2026-05-05 10:44 40.85808 -74.09292 2956 ft 218 kts 161°
2026-05-05 10:44 40.84511 -74.08426 2939 ft 193 kts 173°
2026-05-05 10:44 40.83270 -74.08407 2968 ft 181 kts 203°
2026-05-05 10:45 40.82078 -74.08937 2714 ft 175 kts 206°
2026-05-05 10:45 40.80988 -74.09443 2479 ft 156 kts 208°
2026-05-05 10:45 40.80050 -74.09979 2256 ft 141 kts 212°
2026-05-05 10:45 40.79209 -74.10504 2094 ft 132 kts 214°
2026-05-05 10:46 40.78372 -74.11041 1888 ft 132 kts 213°
2026-05-05 10:46 40.77567 -74.11551 1718 ft 128 kts 215°
2026-05-05 10:46 40.76744 -74.12081 1561 ft 136 kts 212°
2026-05-05 10:46 40.75858 -74.12577 1290 ft 139 kts 205°
2026-05-05 10:47 40.74950 -74.12969 1073 ft 138 kts 204°
2026-05-05 10:47 40.74056 -74.13435 928 ft 143 kts 207°
2026-05-05 10:47 40.73141 -74.14015 805 ft 147 kts 209°
2026-05-05 10:47 40.72212 -74.14606 620 ft 146 kts 207°
2026-05-05 10:48 40.71307 -74.15171 373 ft 143 kts 206°
2026-05-05 10:48 40.70454 -74.15706 198 ft 143 kts 207°
2026-05-05 10:48 40.69560 -74.16282 35 ft 143 kts 207°
2026-05-05 10:48 40.68792 -74.16761 32 ft 92 kts 208°
2026-05-05 10:49 40.68501 -74.17031 27 ft 29 kts 245°
2026-05-05 10:49 40.68567 -74.17128 28 ft 17 kts 15°
2026-05-05 10:49 40.68677 -74.17063 27 ft 18 kts 26°
2026-05-05 10:49 40.68788 -74.16992 27 ft 18 kts 26°
2026-05-05 10:50 40.68896 -74.16922 27 ft 7 kts 26°
2026-05-05 10:50 40.68940 -74.16894 27 ft 7 kts 26°
2026-05-05 10:50 40.68963 -74.16879 27 ft 0 kts 26°
2026-05-05 10:51 40.68964 -74.16878 27 ft 0 kts 26°
2026-05-05 10:51 40.68969 -74.16875 27 ft 5 kts 26°
2026-05-05 10:52 40.69025 -74.16895 28 ft 10 kts 303°
2026-05-05 10:52 40.69054 -74.16970 27 ft 11 kts 296°
2026-05-05 10:52 40.69092 -74.17072 26 ft 13 kts 296°
2026-05-05 10:52 40.69141 -74.17171 27 ft 13 kts 332°
2026-05-05 10:53 40.69208 -74.17161 27 ft 0 kts 22°
2026-05-05 10:54 40.69213 -74.17158 27 ft 4 kts 22°
2026-05-05 10:54 40.69263 -74.17131 27 ft 9 kts 22°
2026-05-05 10:54 40.69326 -74.17098 27 ft 10 kts 22°
2026-05-05 10:54 40.69403 -74.17048 27 ft 16 kts 29°
2026-05-05 10:55 40.69503 -74.16984 27 ft 16 kts 11°
2026-05-05 10:55 40.69612 -74.17016 27 ft 16 kts 342°
2026-05-05 10:55 40.69683 -74.17049 27 ft 16 kts 337°
2026-05-05 10:55 40.69809 -74.17156 27 ft 16 kts 320°
2026-05-05 10:56 40.69890 -74.17260 27 ft 16 kts 308°
2026-05-05 10:56 40.69945 -74.17390 27 ft 16 kts 291°
2026-05-05 10:56 40.69970 -74.17536 27 ft 16 kts 278°
2026-05-05 10:56 40.69977 -74.17634 27 ft 15 kts 273°
2026-05-05 10:57 40.69985 -74.17772 27 ft 13 kts 275°
2026-05-05 10:57 40.69991 -74.17865 27 ft 2 kts 275°
2026-05-05 10:57 40.69993 -74.17893 22 ft 3 kts 275°
2026-05-05 10:57 40.69993 -74.17904 17 ft 1 kts 275°
2026-05-05 10:58 40.69994 -74.17918 12 ft 2 kts 274°
2026-05-05 10:58 40.69987 -74.17938 27 ft 3 kts 227°
2026-05-05 10:58 40.69970 -74.17944 27 ft 3 kts 191°
2026-05-05 10:58 40.69945 -74.17950 27 ft 4 kts 187°
2026-05-05 10:59 40.69936 -74.17952 27 ft 1 kts 186°
2026-05-05 10:59 40.69926 -74.17953 27 ft 0 kts 185°